Regional Weather Roundup
Issued by NWS

Home | Current Version | Previous Version | Graphics & Text | Print | Product List | Glossary Off
Versions: 1 2 3 4 5 6 7 8 9 10 11 12 13 14 15 16 17 18 19 20 21 22 23 24 25 26 27 28 29 30 31 32 33 34 35 36 37 38 39 40 41 42 43 44 45 46 47 48 49 50

000
ASUS43 KTOP 210159
RWRKS

WEATHER ROUNDUP FOR KANSAS
NATIONAL WEATHER SERVICE GOODLAND KS
800 PM CST FRI JAN 20 2017

NOTE:  "FAIR" INDICATES FEW OR NO CLOUDS BELOW 12,000 FEET WITH NO
SIGNIFICANT WEATHER AND/OR OBSTRUCTIONS TO VISIBILITY.

KSZ001>006-013>018-027>032-041>047-210300-
NORTHWEST KANSAS

CITY           SKY/WX    TMP DP  RH WIND       PRES   REMARKS
GOODLAND       CLOUDY    35  33  92 W15       29.43R WCI  25
HAYS           LGT RAIN  42  37  82 W3        29.43R
HILL CITY      CLOUDY    39  37  92 W6        29.43R
RUSSELL        CLOUDY    43  39  86 NW3       29.40S
$$

KSZ061>065-074>080-084>089-210300-
SOUTHWEST KANSAS

CITY           SKY/WX    TMP DP  RH WIND       PRES   REMARKS
DODGE CITY     PTCLDY    39  34  82 NW14      29.47R WCI  31
ELKHART          N/A     36  27  70 N5          N/A
GARDEN CITY    CLEAR     35  32  88 W9        29.47S
GREAT BEND     CLOUDY    43  41  93 S5        29.43R
LIBERAL        CLEAR     36  27  69 N7        29.50F
$$

KSZ066>073-081>083-090>101-210300-
SOUTHEAST KANSAS

CITY           SKY/WX    TMP DP  RH WIND       PRES   REMARKS
CHANUTE        PTCLDY    43  38  82 CALM      29.47F
COFFEYVILLE    CLEAR     49  40  71 SE6       29.48F
HUTCHINSON     CLEAR     41  40  96 SE6       29.42F
MEDICINE LODGE   N/A     38  35  89 CALM      29.44S
NEWTON         CLEAR     38  37  97 S5        29.44S FOG
PARSONS        CLEAR     44  38  79 SE3       29.48F
WICHITA INTL   PTCLDY    37  35  92 NW7       29.44S
WICHITA JABRA  PTCLDY    40  40 100 CALM      29.43F
WINFIELD       CLEAR     43  40  89 SE7       29.46F
$$

KSZ007>012-019>026-033>040-048>060-102>105-210300-
NORTHEAST KANSAS

CITY           SKY/WX    TMP DP  RH WIND       PRES   REMARKS
CONCORDIA      CLOUDY    44  44 100 W3        29.43S FOG
EMPORIA        CLEAR     40  39  97 S6        29.44F
LAWRENCE       CLOUDY    48  47  96 E3        29.46S FOG
MANHATTAN      CLOUDY    47  45  93 SW7       29.44R
OLATHE IND     PTCLDY    46  43  89 SE6       29.47S
OLATHE EXE     CLEAR     44  44 100 S3        29.47R
SALINA         CLOUDY    45  43  93 CALM      29.43F
TOPEKA BILLARD CLOUDY    50  46  86 CALM      29.45S
TOPEKA FORBES  MOCLDY    47  44  90 S7        29.45S
$$




USA.gov is the U.S. government's official web portal to all federal, state and local government web resources and services.